FW5929 Weather Reports


time (UTC)temp
C
wind
direction
speed
KPH
gust
KPH
rain 1hr
cm
rain 24hr
cm
rain mn
cm
humidity
%
barometer
mb
20260507185815 11 69 0.0 1.6 0.00 0.20 0.03 88 1016.1
20260507185314 11 69 0.0 1.6 0.00 0.20 0.03 88 1016.0
20260507184830 11 69 0.0 1.6 0.00 0.20 0.03 87 1016.0
20260507184328 11 69 0.0 1.6 0.00 0.20 0.03 87 1016.0
20260507183825 12 69 0.0 1.6 0.00 0.20 0.03 87 1015.9
20260507183321 12 69 0.0 3.2 0.00 0.20 0.03 87 1015.9
20260507182814 12 69 1.6 3.2 0.00 0.20 0.03 87 1015.9
20260507182332 12 69 1.6 3.2 0.00 0.20 0.03 87 1015.9
20260507181828 12 69 0.0 1.6 0.00 0.20 0.03 85 1015.9
20260507181347 12 69 0.0 3.2 0.00 0.20 0.03 85 1015.8
20260507180822 12 69 1.6 3.2 0.00 0.20 0.03 84 1015.9
20260507180320 12 69 1.6 3.2 0.00 0.20 0.03 82 1015.8
20260507175813 12 69 1.6 3.2 0.00 0.20 0.03 81 1015.8
20260507175331 12 69 1.6 3.2 0.00 0.20 0.03 80 1015.8
20260507174826 12 73 0.0 3.2 0.00 0.20 0.03 80 1015.9
20260507174325 13 72 1.6 3.2 0.00 0.20 0.03 79 1015.8
20260507173820 13 72 3.2 4.8 0.00 0.20 0.03 75 1015.9
20260507173318 13 72 3.2 4.8 0.00 0.20 0.03 74 1015.8
20260507172815 13 72 3.2 4.8 0.00 0.20 0.03 76 1015.8
20260507172332 13 72 3.2 4.8 0.00 0.20 0.03 75 1015.8
20260507171829 13 72 4.8 4.8 0.00 0.20 0.03 74 1015.8
20260507171328 13 72 3.2 4.8 0.00 0.20 0.03 74 1015.9
20260507170823 13 72 3.2 4.8 0.00 0.20 0.03 76 1015.8
20260507170322 13 72 1.6 3.2 0.00 0.20 0.03 73 1015.8
20260507165817 13 72 0.0 1.6 0.00 0.20 0.03 74 1015.8
20260507165315 13 72 0.0 3.2 0.00 0.20 0.03 76 1015.8
20260507164828 13 72 1.6 3.2 0.00 0.20 0.03 74 1015.9
20260507164326 13 72 1.6 1.6 0.00 0.20 0.03 73 1015.9
20260507163822 13 72 1.6 1.6 0.00 0.20 0.03 76 1015.9
20260507163319 13 72 0.0 1.6 0.00 0.20 0.03 72 1015.9
20260507162835 13 72 0.0 1.6 0.00 0.20 0.03 74 1015.9
20260507162331 13 72 0.0 1.6 0.00 0.20 0.03 74 1015.9
20260507161846 13 72 0.0 3.2 0.00 0.20 0.03 75 1015.9
20260507161323 13 72 1.6 4.8 0.00 0.20 0.03 76 1015.9
20260507160820 13 72 3.2 4.8 0.00 0.20 0.03 75 1016.0
20260507160321 13 72 1.6 4.8 0.00 0.20 0.03 77 1016.0
20260507155816 13 72 3.2 4.8 0.00 0.20 0.03 78 1016.0
20260507155334 13 72 1.6 4.8 0.00 0.20 0.03 78 1016.0
20260507154827 13 72 1.6 4.8 0.00 0.20 0.03 77 1016.0
20260507154325 13 72 1.6 4.8 0.00 0.20 0.03 77 1015.9
20260507153842 13 72 1.6 3.2 0.00 0.20 0.03 78 1015.9
20260507153340 13 72 1.6 6.4 0.00 0.20 0.03 77 1016.0
20260507152814 13 72 3.2 6.4 0.00 0.20 0.03 77 1016.0
20260507152331 13 72 3.2 4.8 0.00 0.20 0.03 76 1016.0
20260507151828 13 72 0.0 4.8 0.00 0.20 0.03 74 1015.9
20260507151325 13 72 3.2 4.8 0.00 0.20 0.03 77 1015.9
20260507150822 13 72 3.2 6.4 0.00 0.20 0.03 77 1016.0
20260507150322 13 58 3.2 6.4 0.00 0.20 0.03 75 1016.0
20260507145818 13 62 3.2 4.8 0.00 0.20 0.03 76 1016.0
20260507145336 13 80 3.2 9.7 0.00 0.20 0.03 75 1016.0
20260507144852 13 57 3.2 9.7 0.00 0.20 0.03 77 1016.0
20260507144346 13 105 3.2 8.0 0.00 0.20 0.03 75 1016.1
20260507143819 13 82 3.2 8.0 0.00 0.20 0.03 77 1016.1
20260507143316 13 107 3.2 4.8 0.00 0.20 0.03 76 1016.2
20260507142832 13 107 3.2 4.8 0.00 0.20 0.03 75 1016.2
20260507142332 13 107 3.2 4.8 0.00 0.20 0.03 76 1016.2
20260507141828 13 107 1.6 6.4 0.00 0.20 0.03 74 1016.2
20260507141327 13 107 4.8 6.4 0.00 0.20 0.03 74 1016.2
20260507140825 13 107 1.6 4.8 0.00 0.20 0.03 76 1016.3
20260507140343 13 107 3.2 6.4 0.00 0.20 0.03 75 1016.3
20260507135816 13 108 3.2 6.4 0.00 0.20 0.03 73 1016.3
20260507135315 13 108 3.2 4.8 0.00 0.20 0.03 72 1016.3
20260507134831 13 108 3.2 4.8 0.00 0.20 0.03 72 1016.4
20260507134329 13 108 1.6 9.7 0.00 0.20 0.03 71 1016.4
20260507133846 13 106 4.8 9.7 0.00 0.20 0.03 74 1016.3
20260507133322 13 132 1.6 6.4 0.00 0.20 0.03 72 1016.4
20260507132819 13 87 4.8 6.4 0.00 0.20 0.03 73 1016.4
20260507132317 13 106 3.2 6.4 0.00 0.20 0.03 73 1016.4
20260507131832 13 161 1.6 8.0 0.00 0.20 0.03 74 1016.4
20260507131330 13 161 4.8 8.0 0.00 0.20 0.03 74 1016.4
20260507130844 13 134 3.2 8.0 0.00 0.20 0.03 75 1016.4
20260507130321 13 149 4.8 8.0 0.00 0.20 0.03 75 1016.4
20260507125817 13 139 3.2 4.8 0.00 0.20 0.03 77 1016.4
20260507125318 13 205 1.6 4.8 0.00 0.20 0.03 77 1016.3
20260507124816 13 195 1.6 6.4 0.00 0.20 0.03 76 1016.4
20260507124336 13 195 3.2 6.4 0.00 0.20 0.03 77 1016.3
20260507123852 13 129 6.4 8.0 0.00 0.20 0.03 76 1016.4
20260507123331 13 223 1.6 6.4 0.00 0.20 0.03 76 1016.4
20260507122827 13 223 1.6 6.4 0.00 0.20 0.03 76 1016.4
20260507122327 13 191 4.8 8.0 0.00 0.20 0.03 76 1016.4
20260507121842 13 196 0.0 8.0 0.00 0.20 0.03 76 1016.3
20260507121317 13 197 3.2 8.0 0.00 0.20 0.03 76 1016.3
20260507120833 13 205 3.2 8.0 0.00 0.20 0.03 76 1016.3
20260507120350 13 202 4.8 6.4 0.00 0.20 0.03 74 1016.3
20260507115825 13 234 3.2 4.8 0.00 0.20 0.03 74 1016.3
20260507115324 13 194 0.0 4.8 0.00 0.20 0.03 74 1016.3
20260507114821 13 194 3.2 8.0 0.00 0.20 0.03 74 1016.3
20260507114339 13 199 4.8 8.0 0.00 0.20 0.03 74 1016.3
20260507113829 13 174 3.2 6.4 0.00 0.20 0.03 73 1016.4
20260507113349 13 184 3.2 4.8 0.00 0.20 0.03 73 1016.3
20260507112842 13 296 3.2 4.8 0.00 0.20 0.03 74 1016.4
20260507112319 13 315 3.2 4.8 0.00 0.20 0.03 70 1016.3
20260507111814 13 31 3.2 6.4 0.00 0.20 0.03 73 1016.3
20260507111331 13 9 3.2 6.4 0.00 0.20 0.03 76 1016.4
20260507110825 13 315 1.6 6.4 0.00 0.20 0.03 77 1016.4
20260507110325 13 288 1.6 3.2 0.00 0.20 0.03 76 1016.4
20260507105819 12 23 0.0 4.8 0.00 0.20 0.03 74 1016.4
20260507105317 13 322 0.0 6.4 0.00 0.20 0.03 74 1016.4
20260507104832 13 320 3.2 6.4 0.00 0.20 0.03 77 1016.4
20260507104329 13 323 4.8 6.4 0.00 0.20 0.03 77 1016.4
20260507103827 12 34 1.6 6.4 0.00 0.20 0.03 78 1016.5
20260507103325 12 38 4.8 6.4 0.00 0.20 0.03 77 1016.5
20260507102840 12 49 3.2 4.8 0.00 0.20 0.03 78 1016.5
20260507102337 12 49 3.2 6.4 0.00 0.20 0.03 77 1016.5
20260507101833 12 23 4.8 6.4 0.00 0.20 0.03 78 1016.5
20260507101331 12 9 4.8 6.4 0.00 0.20 0.03 79 1016.5
20260507100828 12 31 3.2 6.4 0.00 0.20 0.03 79 1016.5
20260507100325 12 57 4.8 8.0 0.00 0.20 0.03 80 1016.4
20260507095820 12 335 4.8 8.0 0.00 0.20 0.03 81 1016.5
20260507095317 12 332 1.6 6.4 0.00 0.20 0.03 81 1016.4
20260507094831 12 38 1.6 4.8 0.00 0.20 0.03 83 1016.5
20260507094329 12 333 1.6 4.8 0.00 0.20 0.03 84 1016.4
20260507093842 12 329 1.6 6.4 0.00 0.20 0.03 84 1016.4
20260507093321 11 288 4.8 6.4 0.00 0.20 0.03 83 1016.4
20260507092817 12 341 3.2 6.4 0.00 0.20 0.03 83 1016.3
20260507092338 11 329 0.0 4.8 0.00 0.20 0.03 82 1016.3
20260507091833 12 33 1.6 4.8 0.00 0.20 0.03 84 1016.3
20260507091330 11 36 1.6 4.8 0.00 0.20 0.03 83 1016.3
20260507090826 11 306 1.6 4.8 0.00 0.20 0.03 84 1016.2
20260507090318 11 306 3.2 6.4 0.00 0.20 0.03 83 1016.2
20260507085833 11 307 3.2 6.4 0.00 0.20 0.03 85 1016.2
20260507085329 11 317 1.6 6.4 0.00 0.20 0.03 85 1016.1
20260507084825 11 336 1.6 4.8 0.00 0.20 0.03 86 1016.1
20260507084322 11 342 3.2 4.8 0.00 0.20 0.03 86 1016.1
20260507083815 11 24 1.6 3.2 0.00 0.20 0.03 87 1016.1
20260507083332 10 30 0.0 4.8 0.00 0.20 0.03 86 1016.1
20260507082830 11 30 0.0 6.4 0.00 0.20 0.03 86 1016.0
20260507082349 11 30 4.8 6.4 0.00 0.20 0.03 86 1016.0
20260507081821 10 16 1.6 4.8 0.00 0.20 0.03 87 1016.1
20260507081338 10 31 3.2 4.8 0.00 0.20 0.03 88 1016.1
20260507080832 10 348 1.6 8.0 0.00 0.20 0.03 88 1016.1
20260507080328 10 31 4.8 8.0 0.00 0.20 0.03 87 1016.1
20260507075824 10 55 3.2 6.4 0.00 0.71 0.03 88 1016.0
20260507075323 10 61 3.2 6.4 0.00 0.71 0.03 88 1016.0
20260507074836 10 61 3.2 6.4 0.00 0.71 0.03 89 1016.0
20260507074331 10 62 3.2 6.4 0.00 0.71 0.03 88 1016.0
20260507073826 10 51 3.2 8.0 0.00 0.71 0.03 89 1015.9
20260507073322 10 28 4.8 8.0 0.00 0.71 0.03 89 1015.9
20260507072818 10 63 4.8 8.0 0.00 0.71 0.03 89 1015.9
20260507072316 10 15 3.2 9.7 0.00 0.71 0.03 90 1015.8
20260507071831 10 351 6.4 9.7 0.00 0.71 0.03 90 1015.8
20260507071328 10 360 4.8 8.0 0.00 0.71 0.03 90 1015.8
20260507070825 10 9 4.8 8.0 0.00 0.71 0.03 90 1015.8
20260507070323 10 332 3.2 8.0 0.00 0.71 0.03 91 1015.7
20260507065838 10 339 6.4 9.7 0.00 1.30 0.03 91 1015.6
20260507065313 10 338 8.0 9.7 0.00 1.30 0.03 91 1015.6
20260507064829 9 339 6.4 8.0 0.00 1.30 0.03 91 1015.5
20260507064347 9 341 4.8 8.0 0.00 1.30 0.03 92 1015.5
20260507063819 9 320 3.2 6.4 0.00 1.30 0.03 92 1015.5
20260507063316 9 355 3.2 6.4 0.00 1.30 0.03 92 1015.5
20260507062832 9 336 3.2 6.4 0.00 1.30 0.03 92 1015.4
20260507062328 9 22 3.2 6.4 0.00 1.30 0.03 92 1015.4
20260507061839 9 9 4.8 6.4 0.00 1.30 0.03 92 1015.4
20260507061315 9 355 3.2 6.4 0.00 1.30 0.03 92 1015.3
20260507060831 9 336 3.2 6.4 0.00 1.30 0.03 93 1015.3
20260507060328 9 330 4.8 8.0 0.00 1.30 0.03 93 1015.3
20260507055833 9 347 6.4 8.0 0.00 1.40 0.03 93 1015.2
20260507055329 9 330 4.8 8.0 0.00 1.40 0.03 93 1015.2
20260507054824 8 346 1.6 8.0 0.00 1.40 0.03 93 1015.1
20260507054321 8 311 6.4 8.0 0.00 1.40 0.03 93 1015.1
20260507053840 8 344 4.8 8.0 0.00 1.40 0.03 93 1015.0
20260507053356 8 339 6.4 8.0 0.00 1.40 0.03 93 1015.0
20260507052850 8 332 3.2 6.4 0.00 1.40 0.03 93 1015.0
20260507052346 8 300 3.2 4.8 0.00 1.40 0.03 93 1014.9
20260507051820 8 313 0.0 4.8 0.00 1.40 0.03 94 1014.8
20260507051319 8 313 1.6 4.8 0.00 1.40 0.03 93 1014.8
20260507050835 8 327 1.6 6.4 0.00 1.40 0.03 94 1014.7
20260507050352 8 322 3.2 6.4 0.00 1.40 0.03 94 1014.7
20260507045824 8 314 4.8 6.4 0.00 1.40 0.03 94 1014.7
20260507045344 8 300 3.2 4.8 0.00 1.40 0.03 94 1014.6
20260507044817 8 310 3.2 4.8 0.00 1.40 0.03 94 1014.6
20260507044314 8 293 0.0 1.6 0.00 1.40 0.03 93 1014.5
20260507043829 8 293 0.0 1.6 0.00 1.40 0.03 93 1014.5
20260507043326 8 293 0.0 3.2 0.00 1.40 0.03 93 1014.4
20260507042815 8 318 0.0 4.8 0.00 1.40 0.03 93 1014.4
20260507042313 8 289 0.0 3.2 0.00 1.40 0.03 93 1014.4
20260507041828 8 289 1.6 3.2 0.00 1.40 0.03 94 1014.3
20260507041346 8 311 0.0 4.8 0.00 1.40 0.03 94 1014.3
20260507040819 8 291 1.6 4.8 0.00 1.40 0.03 94 1014.3
20260507040318 8 305 3.2 4.8 0.00 1.40 0.03 94 1014.3
20260507035833 8 312 3.2 4.8 0.00 1.40 0.03 93 1014.3
20260507035330 8 281 0.0 3.2 0.00 1.40 0.03 93 1014.3
20260507034826 8 281 1.6 3.2 0.00 1.40 0.03 93 1014.2
20260507034326 8 281 1.6 3.2 0.00 1.40 0.03 93 1014.3
20260507033820 8 281 1.6 4.8 0.00 1.40 0.03 93 1014.2
20260507033337 8 281 3.2 4.8 0.00 1.40 0.03 93 1014.2
20260507032832 8 286 0.0 4.8 0.00 1.40 0.03 93 1014.2
20260507032329 8 291 1.6 3.2 0.00 1.40 0.03 93 1014.2
20260507031825 8 294 0.0 4.8 0.00 1.40 0.03 93 1014.2
20260507031324 8 294 1.6 4.8 0.00 1.40 0.03 93 1014.1
20260507030820 8 306 1.6 4.8 0.00 1.40 0.03 93 1014.1
20260507030319 8 302 3.2 4.8 0.00 1.40 0.03 93 1014.1
20260507025815 8 273 0.0 3.2 0.00 2.59 0.03 93 1014.1
20260507025313 8 273 0.0 3.2 0.00 2.59 0.03 93 1014.1
20260507024829 8 273 0.0 1.6 0.00 2.59 0.03 93 1014.1
20260507024347 8 273 0.0 1.6 0.00 2.59 0.03 93 1014.1
20260507023821 8 273 0.0 1.6 0.00 2.59 0.03 93 1014.1
20260507023318 8 273 0.0 1.6 0.00 2.59 0.03 93 1014.1
20260507022834 9 273 0.0 1.6 0.00 2.59 0.03 93 1014.0
20260507022330 9 273 0.0 1.6 0.00 2.59 0.03 93 1014.0
20260507021826 9 273 0.0 3.2 0.00 2.59 0.03 93 1014.0
20260507021324 9 273 0.0 3.2 0.00 2.59 0.03 93 1014.0
20260507020820 9 273 0.0 3.2 0.00 2.59 0.03 93 1013.9
20260507020317 9 273 0.0 3.2 0.00 2.59 0.03 93 1013.9
20260507015833 9 273 0.0 6.4 0.00 3.71 0.03 93 1013.9
20260507015332 9 273 3.2 6.4 0.00 3.71 0.03 93 1013.9
20260507014827 9 277 1.6 8.0 0.00 3.71 0.03 93 1013.9
20260507014324 9 284 1.6 14.5 0.00 3.71 0.03 93 1013.8
20260507013820 9 309 1.6 8.0 0.00 3.71 0.03 93 1013.8
20260507013316 9 284 4.8 9.7 0.10 3.71 0.03 93 1013.7
20260507012828 9 342 0.0 6.4 0.10 3.71 0.03 93 1013.8
20260507012324 9 337 3.2 6.4 0.10 3.71 0.03 93 1013.8
20260507011841 8 277 0.0 1.6 0.10 3.71 0.03 93 1013.8
20260507011337 9 277 0.0 0.0 0.10 3.71 0.03 93 1013.8
20260507010851 9 277 0.0 0.0 0.10 3.71 0.03 93 1013.8
20260507010346 8 277 0.0 4.8 0.10 3.71 0.03 93 1013.8
20260507005821 8 277 1.6 4.8 0.10 3.81 0.03 93 1013.8
20260507005319 8 270 1.6 4.8 0.10 3.81 0.03 93 1013.7
20260507004835 8 286 0.0 3.2 0.10 3.81 0.03 93 1013.7
20260507004333 8 293 1.6 3.2 0.10 3.81 0.03 93 1013.7
20260507003828 8 273 0.0 3.2 0.10 3.81 0.03 93 1013.7
20260507003329 9 252 0.0 3.2 0.00 3.71 0.00 93 1013.7
20260507002823 9 252 1.6 4.8 0.00 3.71 0.00 93 1013.8
20260507002319 9 252 0.0 4.8 0.00 3.71 0.00 93 1013.7
20260507001834 9 252 0.0 3.2 0.00 3.71 0.00 93 1013.7
20260507001352 9 252 0.0 3.2 0.00 3.71 0.00 93 1013.7
20260507000826 9 252 1.6 4.8 0.00 3.71 0.00 93 1013.8
20260507000323 8 252 1.6 4.8 0.00 3.71 0.00 93 1013.7
20260506235818 9 252 3.2 4.8 0.00 3.71 0.00 93 1013.7
20260506235336 9 252 1.6 4.8 0.00 3.71 0.00 93 1013.7
20260506234853 9 280 0.0 3.2 0.00 3.71 0.00 93 1013.6
20260506234331 9 280 1.6 3.2 0.00 3.71 0.00 93 1013.6
20260506233824 9 280 0.0 3.2 0.00 3.71 0.00 93 1013.6
20260506233344 9 280 1.6 3.2 0.00 3.71 0.00 93 1013.5
20260506232816 9 269 1.6 3.2 0.00 3.71 0.00 93 1013.5
20260506232314 9 269 0.0 1.6 0.00 3.71 0.00 93 1013.7
20260506231852 9 269 0.0 1.6 0.00 3.71 0.00 93 1013.6
20260506231329 9 269 0.0 3.2 0.00 3.71 0.00 93 1013.6
20260506230823 9 269 0.0 3.2 0.00 3.71 0.00 93 1013.5
20260506230320 9 269 0.0 4.8 0.00 3.71 0.00 93 1013.5
20260506225815 9 243 1.6 4.8 0.00 3.71 0.00 93 1013.4
20260506225333 9 248 1.6 3.2 0.00 3.71 0.00 92 1013.5
20260506224827 9 248 0.0 6.4 0.00 3.71 0.00 92 1013.4
20260506224326 9 248 1.6 6.4 0.00 3.71 0.00 92 1013.4
20260506223841 9 286 0.0 9.7 0.00 3.71 0.00 92 1013.4
20260506223316 9 286 1.6 9.7 0.00 3.71 0.00 93 1013.4
20260506222831 9 272 1.6 4.8 0.00 3.71 0.00 93 1013.4
20260506222326 9 347 1.6 4.8 0.00 3.71 0.00 93 1013.4
20260506221821 9 287 0.0 4.8 0.00 3.71 0.00 93 1013.3
20260506221319 9 278 0.0 3.2 0.00 3.71 0.00 93 1013.3
20260506220816 9 263 0.0 4.8 0.00 3.71 0.00 93 1013.2
20260506220334 9 263 1.6 4.8 0.00 3.71 0.00 93 1013.3
20260506215828 9 303 3.2 4.8 0.00 3.71 0.74 93 1013.3
20260506215328 9 269 3.2 4.8 0.00 3.71 0.74 93 1013.2
20260506214823 9 237 0.0 4.8 0.00 3.71 0.74 93 1013.3
20260506214322 9 237 1.6 6.4 0.10 3.71 0.74 93 1013.2
20260506213819 9 265 3.2 6.4 0.10 3.71 0.74 93 1013.2
20260506213317 9 265 3.2 4.8 0.10 3.71 0.74 93 1013.2
20260506212832 9 296 0.0 4.8 0.10 3.71 0.74 93 1013.2
20260506212332 9 296 0.0 4.8 0.10 3.71 0.74 93 1013.2
20260506211828 9 296 0.0 4.8 0.10 3.71 0.74 93 1013.2
20260506211328 9 275 3.2 4.8 0.10 3.71 0.74 93 1013.2
20260506210845 9 300 0.0 3.2 0.10 3.71 0.74 92 1013.2
20260506210321 9 300 1.6 4.8 0.10 3.71 0.74 92 1013.1
20260506205839 9 301 1.6 4.8 0.10 3.71 0.74 92 1013.2
20260506205337 9 307 0.0 4.8 0.10 3.71 0.74 92 1013.1
20260506204849 9 307 1.6 8.0 0.10 3.71 0.74 92 1013.0
20260506204327 9 302 4.8 8.0 0.00 3.61 0.71 92 1013.0
20260506203822 9 298 3.2 6.4 0.00 3.61 0.71 92 1012.9
20260506203316 9 304 3.2 9.7 0.00 3.61 0.71 92 1012.9
20260506202855 9 313 3.2 9.7 0.00 3.61 0.71 92 1012.8
20260506202350 9 306 1.6 6.4 0.00 3.61 0.71 91 1012.9
20260506201822 9 290 1.6 8.0 0.00 3.61 0.71 91 1012.7
20260506201319 10 301 3.2 6.4 0.00 3.61 0.71 91 1012.7
20260506200833 10 304 3.2 4.8 0.00 3.61 0.71 91 1012.7
20260506200329 10 304 3.2 4.8 0.00 3.61 0.71 91 1012.6
20260506195823 10 304 1.6 4.8 0.00 3.61 0.71 91 1012.6
20260506195321 10 310 1.6 3.2 0.00 3.61 0.71 91 1012.6
20260506194833 10 310 1.6 3.2 0.00 3.61 0.71 91 1012.5
20260506194330 10 310 1.6 3.2 0.00 3.61 0.71 91 1012.4
20260506193824 10 310 1.6 4.8 0.00 3.61 0.71 90 1012.3
20260506193322 10 312 3.2 4.8 0.00 3.61 0.71 90 1012.3
20260506192815 10 304 1.6 4.8 0.00 3.61 0.71 90 1012.2
20260506192330 10 306 1.6 8.0 0.00 3.61 0.71 90 1012.2
20260506191822 10 311 3.2 8.0 0.00 3.61 0.71 90 1012.0
20260506191315 10 306 4.8 8.0 0.00 3.61 0.71 90 1011.9
20260506190829 10 325 4.8 8.0 0.00 3.61 0.71 90 1011.8
20260506190324 10 328 6.4 8.0 0.00 3.61 0.71 89 1011.8